Location: Krakow
(50.0212°N, 19.9423°E)
Time: 23:05:26
(UTC+02:00)

NOAA 18 - Pass Details

Date: 20 August 2024
Orbit: 837 x 859 km, 98.9° (Epoch: 19 September)

Event Time Altitude Azimuth Distance (km) Brightness Sun altitude
Exits shadow 22:31:46 45° 153° (SSE) 1,159 5.4 -21.5°
Maximum altitude 22:33:34 82° 73° (ENE) 875 5.2 -21.7°
Drops below altitude 10° 22:39:09 10° 346° (NNW) 2,506 8.6 -22.2°
Sets 22:41:32 0° 346° (NNW) 3,446 9.6 -22.4°
